Regional Weather Roundup
Issued by NWS

Home | Current Version | Previous Version | Graphics & Text | Print | Product List | Glossary On
Versions: 1 2 3 4 5 6 7 8 9 10 11 12 13 14 15 16 17 18 19 20 21 22 23 24 25 26 27 28 29 30 31 32 33 34 35 36 37 38 39 40 41 42 43 44 45 46 47 48 49 50
000
ASUS43 KIND 291059
RWRIN

WEATHER ROUNDUP FOR INDIANA
NATIONAL WEATHER SERVICE INDIANAPOLIS IN
600 AM EST MON DEC 29 2014

NOTE: "FAIR" INDICATES FEW OR NO CLOUDS BELOW 12,000 FEET WITH NO
SIGNIFICANT WEATHER AND/OR OBSTRUCTIONS TO VISIBILITY.

* - STATION DOES NOT REPORT WEATHER SUCH AS PRECIPITATION OR FOG.

+ - STATION NOT QUALITY CONTROLLED BY THE NATIONAL WEATHER SERVICE.
    USE DATA WITH CAUTION...ESPECIALLY DEWPOINT AND RELATIVE
    HUMIDITY OBSERVATIONS.

INZ001>003-010>013-019-020-291200-
NORTHWEST INDIANA

CITY           SKY/WX    TMP DP  RH WIND       PRES   REMARKS
GARY /AIRPORT/ PTCLDY    23  18  80 W6        30.27S WCI  16
KNOX *+        CLEAR     18  14  84 CALM      30.24S
VALPARAISO     NOT AVBL

$$

LMZ046-743>745-291200-
SOUTHERN LAKE MICHIGAN

STATION/POSITION TIME  TEMP WIND        PRES
                       AIR  DIR/SP/G
                 (UTC) (F)  (DEG/KT/KT) (MB)
MICHIGAN CITY    1000   34  350/ 10/ 13   N/A

$$

INZ004-005-014>016-021>024-291200-
NORTH CENTRAL INDIANA

CITY           SKY/WX    TMP DP  RH WIND       PRES   REMARKS
GOSHEN         CLOUDY    26  23  88 CALM      30.24S
PERU/GRISSOM   FOG       19  19 100 CALM      30.24S VSB 3/4
SOUTH BEND     CLOUDY    24  21  88 CALM      30.25S
WARSAW +       CLEAR     19  18  93 CALM      30.24S FOG

$$

INZ006>009-017-018-025>027-291200-
NORTHEAST INDIANA

CITY           SKY/WX    TMP DP  RH WIND       PRES   REMARKS
ANGOLA *+      CLEAR     18  18 100 CALM      30.22S
FORT WAYNE     PTCLDY    22  19  89 CALM      30.25S

$$

INZ028-029-035-036-043>045-051>053-291200-
WEST CENTRAL INDIANA

CITY           SKY/WX    TMP DP  RH WIND       PRES   REMARKS
GREENCASTLE +  CLEAR     21  18  86 CALM      30.25R
LAFAYETTE      CLEAR     17  15  92 N3        30.26S
TERRE HAUTE    CLEAR     19  17  92 NE3       30.26S

$$

INZ030>032-037>040-046>048-054>057-064-065-291200-
CENTRAL INDIANA

CITY           SKY/WX    TMP DP  RH WIND       PRES   REMARKS
CP ATTERBURY + CLEAR     21  19  93 MISG      30.26R FOG
INDIANAPOLIS   CLEAR     20  18  92 N3        30.24R
-EAGLE CREEK   CLEAR     22  19  89 CALM      30.24S
KOKOMO *+      CLEAR     21  19  93 CALM      30.25S
MT COMFORT *+  CLEAR     21 N/A N/A N3        30.24S
SHELBYVILLE    CLEAR     25  22  88 NE5       30.24R WCI  19

$$

INZ033-034-041-042-049-050-058-059-291200-
EAST CENTRAL INDIANA

CITY           SKY/WX    TMP DP  RH WIND       PRES   REMARKS
MUNCIE         CLEAR     22  19  89 CALM      30.23F FOG

$$

INZ060-061-067>069-081>083-085>088-291200-
SOUTHWEST INDIANA

CITY           SKY/WX    TMP DP  RH WIND       PRES   REMARKS
EVANSVILLE     CLOUDY    32  25  75 N10       30.24S WCI  24
HUNTINGBURG *+ CLOUDY    32  25  74 NE12      30.23S WCI  23

$$

INZ062-063-066-070>080-084-089>092-291200-
SOUTH CENTRAL AND SOUTHEAST INDIANA

CITY           SKY/WX    TMP DP  RH WIND       PRES   REMARKS
BLOOMINGTON    CLEAR     22  20  92 NE3       30.24R
SEYMOUR +      CLOUDY    30  27  86 NE9       30.25R WCI  22

$$



USA.gov is the U.S. government's official web portal to all federal, state and local government web resources and services.